This is the latest recevied weather packets stored in our database for station/object W2EH. If no packets are shown the sender has not sent any weather packets the latest 10 day(s).
| Time | Temp. | Humidity | Pressure | Rain* | Wind** | Luminosity | Snow |
|---|---|---|---|---|---|---|---|
| 1777994294 | 22.78° C | 86% | 1007.6 hPa | 0 mm | - | 78 W/m² | - |
| 1777993991 | 22.78° C | 86% | 1007.7 hPa | 0 mm | - | 66 W/m² | - |
| 1777993688 | 22.22° C | 86% | 1007.5 hPa | 0 mm | - | 80 W/m² | - |
| 1777993385 | 22.22° C | 87% | 1007.2 hPa | 0 mm | - | 83 W/m² | - |
| 1777993085 | 22.22° C | 86% | 1007.3 hPa | 0 mm | - | 61 W/m² | - |
| 1777992784 | 22.22° C | 86% | 1007.3 hPa | 0 mm | - | 50 W/m² | - |
| 1777992481 | 22.22° C | 86% | 1007.3 hPa | 0 mm | - | 50 W/m² | - |
| 1777992179 | 22.22° C | 86% | 1007.4 hPa | 0 mm | - | 58 W/m² | - |
| 1777991876 | 22.22° C | 86% | 1007.3 hPa | 0 mm | - | 51 W/m² | - |
| 1777991574 | 22.22° C | 86% | 1007.2 hPa | 0 mm | - | 51 W/m² | - |
| 1777991270 | 22.22° C | 86% | 1007.1 hPa | 0 mm | - | 63 W/m² | - |
| 1777990968 | 22.22° C | 86% | 1007.2 hPa | 0 mm | - | 59 W/m² | - |
| 1777990665 | 22.22° C | 87% | 1007.2 hPa | 0 mm | - | 51 W/m² | - |
| 1777990362 | 22.22° C | 87% | 1007.1 hPa | 0 mm | - | 50 W/m² | - |
| 1777990058 | 21.67° C | 87% | 1007 hPa | 0 mm | - | 31 W/m² | - |
| 1777989755 | 21.67° C | 87% | 1007.1 hPa | 0 mm | - | 24 W/m² | - |
| 1777989452 | 21.67° C | 86% | 1006.9 hPa | 0 mm | - | 29 W/m² | - |
| 1777989148 | 21.67° C | 86% | 1007.1 hPa | 0 mm | - | 31 W/m² | - |
| 1777988844 | 21.67° C | 86% | 1006.8 hPa | 0 mm | - | 36 W/m² | - |
| 1777988542 | 21.67° C | 86% | 1006.9 hPa | 0 mm | - | 44 W/m² | - |
| 1777988238 | 21.67° C | 86% | 1006.5 hPa | 0 mm | - | 38 W/m² | - |
| 1777987935 | 21.67° C | 87% | 1006.6 hPa | 0 mm | - | 38 W/m² | - |
| 1777987630 | 21.67° C | 87% | 1006.8 hPa | 0 mm | - | 34 W/m² | - |
| 1777987328 | 21.67° C | 87% | 1006.6 hPa | 0 mm | - | 18 W/m² | - |
| 1777987025 | 21.67° C | 87% | 1006.6 hPa | 0 mm | - | 20 W/m² | - |
* Rain latest hour (hover to see other rain measurements)
** Current wind speed in m/s (hover to see current wind gust speed)